owner,sensor,date,latitude,longitude,vertical_datum,wind_speed,wind_to_direction,wind_speed_of_gust,qcFlag 
DISL,ioos:station:DISL:KATA:1,2013-05-01T00:00:00Z,30.2583,-88.2131,0.0,7.29,190.1,-9999.0,'1111122,1111122,1111122' 
DISL,ioos:station:DISL:KATA:1,2013-05-01T00:30:00Z,30.2583,-88.2131,0.0,4.79,177.5,-9999.0,'1111122,1111122,1111122' 
DISL,ioos:station:DISL:KATA:1,2013-05-01T01:00:00Z,30.2583,-88.2131,0.0,4.33,144.6,-9999.0,'1111122,1111122,1111122' 
DISL,ioos:station:DISL:KATA:1,2013-05-01T01:30:00Z,30.2583,-88.2131,0.0,5.85,112.8,-9999.0,'1111122,1111122,1111122' 
DISL,ioos:station:DISL:KATA:1,2013-05-01T02:00:00Z,30.2583,-88.2131,0.0,6.9,122.8,-9999.0,'1111122,1111122,1111122' 
DISL,ioos:station:DISL:KATA:1,2013-05-01T02:30:00Z,30.2583,-88.2131,0.0,6.13,115.8,-9999.0,'1111122,1111122,1111122' 
DISL,ioos:station:DISL:KATA:1,2013-05-01T03:00:00Z,30.2583,-88.2131,0.0,7.27,98.2,-9999.0,'1111122,1111122,1111122' 
DISL,ioos:station:DISL:KATA:1,2013-05-01T03:30:00Z,30.2583,-88.2131,0.0,9.21,105.6,-9999.0,'1111122,1111122,1111122' 
DISL,ioos:station:DISL:KATA:1,2013-05-01T04:00:00Z,30.2583,-88.2131,0.0,8.84,104.9,-9999.0,'1111122,1111122,1111122' 
DISL,ioos:station:DISL:KATA:1,2013-05-01T04:30:00Z,30.2583,-88.2131,0.0,8.24,114.0,-9999.0,'1111122,1111122,1111122' 
DISL,ioos:station:DISL:KATA:1,2013-05-01T05:00:00Z,30.2583,-88.2131,0.0,8.2,102.4,-9999.0,'1111122,1111122,1111122' 
DISL,ioos:station:DISL:KATA:1,2013-05-01T05:30:00Z,30.2583,-88.2131,0.0,7.79,110.5,-9999.0,'1111122,1111122,1111122' 
DISL,ioos:station:DISL:KATA:1,2013-05-01T06:00:00Z,30.2583,-88.2131,0.0,8.23,111.2,-9999.0,'1111122,1111122,1111122' 
DISL,ioos:station:DISL:KATA:1,2013-05-01T06:30:00Z,30.2583,-88.2131,0.0,7.54,122.7,-9999.0,'1111122,1111122,1111122' 
DISL,ioos:station:DISL:KATA:1,2013-05-01T07:00:00Z,30.2583,-88.2131,0.0,7.71,104.3,-9999.0,'1111122,1111122,1111122' 
DISL,ioos:station:DISL:KATA:1,2013-05-01T07:30:00Z,30.2583,-88.2131,0.0,6.67,101.3,-9999.0,'1111122,1111122,1111122' 
DISL,ioos:station:DISL:KATA:1,2013-05-01T08:00:00Z,30.2583,-88.2131,0.0,6.61,93.6,-9999.0,'1111122,1111122,1111122' 
DISL,ioos:station:DISL:KATA:1,2013-05-01T08:30:00Z,30.2583,-88.2131,0.0,7.83,73.59,-9999.0,'1111122,1111122,1111122' 
DISL,ioos:station:DISL:KATA:1,2013-05-01T09:00:00Z,30.2583,-88.2131,0.0,7.74,83.2,-9999.0,'1111122,1111122,1111122' 
DISL,ioos:station:DISL:KATA:1,2013-05-01T09:30:00Z,30.2583,-88.2131,0.0,8.4,81.1,-9999.0,'1111122,1111122,1111122' 
DISL,ioos:station:DISL:KATA:1,2013-05-01T10:00:00Z,30.2583,-88.2131,0.0,8.49,79.93,-9999.0,'1111122,1111122,1111122' 
DISL,ioos:station:DISL:KATA:1,2013-05-01T10:30:00Z,30.2583,-88.2131,0.0,8.36,86.5,-9999.0,'1111122,1111122,1111122' 
DISL,ioos:station:DISL:KATA:1,2013-05-01T11:00:00Z,30.2583,-88.2131,0.0,8.75,86.3,-9999.0,'1111122,1111122,1111122' 
DISL,ioos:station:DISL:KATA:1,2013-05-01T11:30:00Z,30.2583,-88.2131,0.0,8.29,81.3,-9999.0,'1111122,1111122,1111122' 
DISL,ioos:station:DISL:KATA:1,2013-05-01T12:00:00Z,30.2583,-88.2131,0.0,8.74,85.8,-9999.0,'1111122,1111122,1111122' 
DISL,ioos:station:DISL:KATA:1,2013-05-01T12:30:00Z,30.2583,-88.2131,0.0,9.95,86.4,-9999.0,'1111122,1111122,1111122' 
DISL,ioos:station:DISL:KATA:1,2013-05-01T13:00:00Z,30.2583,-88.2131,0.0,9.29,83.9,-9999.0,'1111122,1111122,1111122' 
DISL,ioos:station:DISL:KATA:1,2013-05-01T13:30:00Z,30.2583,-88.2131,0.0,10.32,87.6,-9999.0,'1111122,1111122,1111122' 
DISL,ioos:station:DISL:KATA:1,2013-05-01T14:00:00Z,30.2583,-88.2131,0.0,10.24,86.6,-9999.0,'1111122,1111122,1111122' 
DISL,ioos:station:DISL:KATA:1,2013-05-01T14:30:00Z,30.2583,-88.2131,0.0,10.63,94.2,-9999.0,'1111122,1111122,1111122' 
DISL,ioos:station:DISL:KATA:1,2013-05-01T15:00:00Z,30.2583,-88.2131,0.0,10.75,93.2,-9999.0,'1111122,1111122,1111122' 
DISL,ioos:station:DISL:KATA:1,2013-05-01T15:30:00Z,30.2583,-88.2131,0.0,11.78,94.0,-9999.0,'1111122,1111122,1111122' 
DISL,ioos:station:DISL:KATA:1,2013-05-01T16:00:00Z,30.2583,-88.2131,0.0,11.43,92.9,-9999.0,'1111122,1111122,1111122' 
DISL,ioos:station:DISL:KATA:1,2013-05-01T16:30:00Z,30.2583,-88.2131,0.0,12.81,98.0,-9999.0,'1111122,1111122,1111122' 
DISL,ioos:station:DISL:KATA:1,2013-05-01T17:00:00Z,30.2583,-88.2131,0.0,12.85,97.6,-9999.0,'1111122,1111122,1111122' 
DISL,ioos:station:DISL:KATA:1,2013-05-01T17:30:00Z,30.2583,-88.2131,0.0,13.02,89.2,-9999.0,'1111122,1111122,1111122' 
DISL,ioos:station:DISL:KATA:1,2013-05-01T18:00:00Z,30.2583,-88.2131,0.0,12.77,91.8,-9999.0,'1111122,1111122,1111122' 
DISL,ioos:station:DISL:KATA:1,2013-05-01T18:30:00Z,30.2583,-88.2131,0.0,13.91,92.0,-9999.0,'1111122,1111122,1111122' 
DISL,ioos:station:DISL:KATA:1,2013-05-01T19:00:00Z,30.2583,-88.2131,0.0,13.83,95.4,-9999.0,'1111122,1111122,1111122' 
DISL,ioos:station:DISL:KATA:1,2013-05-01T19:30:00Z,30.2583,-88.2131,0.0,12.86,91.6,-9999.0,'1111122,1111122,1111122' 
DISL,ioos:station:DISL:KATA:1,2013-05-01T20:00:00Z,30.2583,-88.2131,0.0,14.24,85.7,-9999.0,'1111122,1111122,1111122' 
DISL,ioos:station:DISL:KATA:1,2013-05-01T20:30:00Z,30.2583,-88.2131,0.0,13.85,92.9,-9999.0,'1111122,1111122,1111122' 
DISL,ioos:station:DISL:KATA:1,2013-05-01T21:00:00Z,30.2583,-88.2131,0.0,14.67,88.0,-9999.0,'1111122,1111122,1111122' 
DISL,ioos:station:DISL:KATA:1,2013-05-01T21:30:00Z,30.2583,-88.2131,0.0,8.14,109.8,-9999.0,'1111122,1111122,1111122' 
DISL,ioos:station:DISL:KATA:1,2013-05-01T22:00:00Z,30.2583,-88.2131,0.0,13.43,91.3,-9999.0,'1111122,1111122,1111122' 
DISL,ioos:station:DISL:KATA:1,2013-05-01T22:30:00Z,30.2583,-88.2131,0.0,14.73,84.6,-9999.0,'1111122,1111122,1111122' 
DISL,ioos:station:DISL:KATA:1,2013-05-01T23:00:00Z,30.2583,-88.2131,0.0,14.61,85.8,-9999.0,'1111122,1111122,1111122' 
DISL,ioos:station:DISL:KATA:1,2013-05-01T23:30:00Z,30.2583,-88.2131,0.0,15.93,92.2,-9999.0,'1111122,1111122,1111122' 
DISL,ioos:station:DISL:KATA:1,2013-05-02T00:00:00Z,30.2583,-88.2131,0.0,16.36,85.9,-9999.0,'1111122,1111122,1111122' 
DISL,ioos:station:DISL:KATA:1,2013-05-02T00:30:00Z,30.2583,-88.2131,0.0,12.43,110.3,-9999.0,'1111122,1111122,1111122' 
DISL,ioos:station:DISL:KATA:1,2013-05-02T01:00:00Z,30.2583,-88.2131,0.0,15.82,86.9,-9999.0,'1111122,1111122,1111122' 
DISL,ioos:station:DISL:KATA:1,2013-05-02T01:30:00Z,30.2583,-88.2131,0.0,13.13,93.5,-9999.0,'1111122,1111122,1111122' 
DISL,ioos:station:DISL:KATA:1,2013-05-02T02:00:00Z,30.2583,-88.2131,0.0,13.96,96.8,-9999.0,'1111122,1111122,1111122' 
DISL,ioos:station:DISL:KATA:1,2013-05-02T02:30:00Z,30.2583,-88.2131,0.0,15.53,96.2,-9999.0,'1111122,1111122,1111122' 
DISL,ioos:station:DISL:KATA:1,2013-05-02T03:00:00Z,30.2583,-88.2131,0.0,9.11,274.6,-9999.0,'1111122,1111122,1111122' 
DISL,ioos:station:DISL:KATA:1,2013-05-02T03:30:00Z,30.2583,-88.2131,0.0,5.56,61.28,-9999.0,'1111122,1111122,1111122' 
DISL,ioos:station:DISL:KATA:1,2013-05-02T04:00:00Z,30.2583,-88.2131,0.0,5.86,44.99,-9999.0,'1111122,1111122,1111122' 
DISL,ioos:station:DISL:KATA:1,2013-05-02T04:30:00Z,30.2583,-88.2131,0.0,9.46,66.0,-9999.0,'1111122,1111122,1111122' 
DISL,ioos:station:DISL:KATA:1,2013-05-02T05:00:00Z,30.2583,-88.2131,0.0,9.98,113.8,-9999.0,'1111122,1111122,1111122' 
DISL,ioos:station:DISL:KATA:1,2013-05-02T05:30:00Z,30.2583,-88.2131,0.0,0.02,119.2,-9999.0,'1111122,1111122,1111122' 
DISL,ioos:station:DISL:KATA:1,2013-05-02T06:00:00Z,30.2583,-88.2131,0.0,0.01,103.6,-9999.0,'1111122,1111122,1111122' 
DISL,ioos:station:DISL:KATA:1,2013-05-02T06:30:00Z,30.2583,-88.2131,0.0,0.0,107.8,-9999.0,'1114422,1111122,1111122' 
DISL,ioos:station:DISL:KATA:1,2013-05-02T07:00:00Z,30.2583,-88.2131,0.0,0.0,127.1,-9999.0,'1114422,1111122,1111122' 
DISL,ioos:station:DISL:KATA:1,2013-05-02T07:30:00Z,30.2583,-88.2131,0.0,0.0,139.0,-9999.0,'1114422,1111122,1111122' 
DISL,ioos:station:DISL:KATA:1,2013-05-02T08:00:00Z,30.2583,-88.2131,0.0,0.0,120.9,-9999.0,'1114422,1111122,1111122' 
DISL,ioos:station:DISL:KATA:1,2013-05-02T08:30:00Z,30.2583,-88.2131,0.0,0.0,131.5,-9999.0,'1114422,1111122,1111122' 
DISL,ioos:station:DISL:KATA:1,2013-05-02T09:00:00Z,30.2583,-88.2131,0.0,0.0,127.4,-9999.0,'1114422,1111122,1111122' 
DISL,ioos:station:DISL:KATA:1,2013-05-02T09:30:00Z,30.2583,-88.2131,0.0,0.0,117.1,-9999.0,'1114422,1111122,1111122' 
DISL,ioos:station:DISL:KATA:1,2013-05-02T10:00:00Z,30.2583,-88.2131,0.0,0.0,93.8,-9999.0,'1114422,1111122,1111122' 
DISL,ioos:station:DISL:KATA:1,2013-05-02T10:30:00Z,30.2583,-88.2131,0.0,0.0,0.0,-9999.0,'1114422,1114422,1111122' 
DISL,ioos:station:DISL:KATA:1,2013-05-02T11:00:00Z,30.2583,-88.2131,0.0,0.0,0.0,-9999.0,'1114422,1114422,1111122' 
DISL,ioos:station:DISL:KATA:1,2013-05-02T11:30:00Z,30.2583,-88.2131,0.0,0.0,0.0,-9999.0,'1114422,1114422,1111122' 
DISL,ioos:station:DISL:KATA:1,2013-05-02T12:00:00Z,30.2583,-88.2131,0.0,0.0,0.0,-9999.0,'1114422,1114422,1111122' 
DISL,ioos:station:DISL:KATA:1,2013-05-02T12:30:00Z,30.2583,-88.2131,0.0,0.0,0.0,-9999.0,'1114422,1114422,1111122' 
DISL,ioos:station:DISL:KATA:1,2013-05-02T13:00:00Z,30.2583,-88.2131,0.0,0.0,0.0,-9999.0,'1114422,1114422,1111122' 
DISL,ioos:station:DISL:KATA:1,2013-05-02T13:30:00Z,30.2583,-88.2131,0.0,0.0,0.0,-9999.0,'1114422,1114422,1111122' 
DISL,ioos:station:DISL:KATA:1,2013-05-02T14:00:00Z,30.2583,-88.2131,0.0,0.0,122.2,-9999.0,'1114422,1111122,1111122' 
DISL,ioos:station:DISL:KATA:1,2013-05-02T14:30:00Z,30.2583,-88.2131,0.0,0.0,116.6,-9999.0,'1114422,1111122,1111122' 
DISL,ioos:station:DISL:KATA:1,2013-05-02T15:00:00Z,30.2583,-88.2131,0.0,0.0,123.2,-9999.0,'1114422,1111122,1111122' 
DISL,ioos:station:DISL:KATA:1,2013-05-02T15:30:00Z,30.2583,-88.2131,0.0,0.0,123.9,-9999.0,'1114422,1111122,1111122' 
DISL,ioos:station:DISL:KATA:1,2013-05-02T16:00:00Z,30.2583,-88.2131,0.0,0.0,148.7,-9999.0,'1114422,1111122,1111122' 
DISL,ioos:station:DISL:KATA:1,2013-05-02T16:30:00Z,30.2583,-88.2131,0.0,0.0,139.7,-9999.0,'1114422,1111122,1111122' 
DISL,ioos:station:DISL:KATA:1,2013-05-02T17:00:00Z,30.2583,-88.2131,0.0,0.0,158.4,-9999.0,'1114422,1111122,1111122' 
DISL,ioos:station:DISL:KATA:1,2013-05-02T17:30:00Z,30.2583,-88.2131,0.0,0.0,110.0,-9999.0,'1114422,1111122,1111122' 
DISL,ioos:station:DISL:KATA:1,2013-05-02T18:00:00Z,30.2583,-88.2131,0.0,0.0,39.65,-9999.0,'1114422,1111122,1111122' 
DISL,ioos:station:DISL:KATA:1,2013-05-02T18:30:00Z,30.2583,-88.2131,0.0,0.0,0.0,-9999.0,'1114422,1114422,1111122' 
DISL,ioos:station:DISL:KATA:1,2013-05-02T19:00:00Z,30.2583,-88.2131,0.0,0.0,0.0,-9999.0,'1114422,1114422,1111122' 
DISL,ioos:station:DISL:KATA:1,2013-05-02T19:30:00Z,30.2583,-88.2131,0.0,0.0,0.0,-9999.0,'1114422,1114422,1111122' 
DISL,ioos:station:DISL:KATA:1,2013-05-02T20:00:00Z,30.2583,-88.2131,0.0,0.0,0.0,-9999.0,'1114422,1114422,1111122' 
DISL,ioos:station:DISL:KATA:1,2013-05-02T20:30:00Z,30.2583,-88.2131,0.0,0.0,0.0,-9999.0,'1114422,1114422,1111122' 
DISL,ioos:station:DISL:KATA:1,2013-05-02T21:00:00Z,30.2583,-88.2131,0.0,0.0,0.0,-9999.0,'1114422,1114422,1111122' 
DISL,ioos:station:DISL:KATA:1,2013-05-02T21:30:00Z,30.2583,-88.2131,0.0,0.0,0.0,-9999.0,'1114422,1114422,1111122' 
DISL,ioos:station:DISL:KATA:1,2013-05-02T22:00:00Z,30.2583,-88.2131,0.0,0.0,0.0,-9999.0,'1114422,1114422,1111122' 
DISL,ioos:station:DISL:KATA:1,2013-05-02T22:30:00Z,30.2583,-88.2131,0.0,0.0,0.0,-9999.0,'1114422,1114422,1111122' 
DISL,ioos:station:DISL:KATA:1,2013-05-02T23:00:00Z,30.2583,-88.2131,0.0,0.0,0.0,-9999.0,'1114422,1114422,1111122' 
DISL,ioos:station:DISL:KATA:1,2013-05-02T23:30:00Z,30.2583,-88.2131,0.0,0.0,0.0,-9999.0,'1114422,1114422,1111122' 
DISL,ioos:station:DISL:KATA:1,2013-05-03T00:00:00Z,30.2583,-88.2131,0.0,0.0,0.0,-9999.0,'1114422,1114422,1111122' 
DISL,ioos:station:DISL:KATA:1,2013-05-03T00:30:00Z,30.2583,-88.2131,0.0,0.0,0.0,-9999.0,'1114422,1114422,1111122' 
DISL,ioos:station:DISL:KATA:1,2013-05-03T01:00:00Z,30.2583,-88.2131,0.0,0.0,0.0,-9999.0,'1114422,1114422,1111122' 
DISL,ioos:station:DISL:KATA:1,2013-05-03T01:30:00Z,30.2583,-88.2131,0.0,0.0,0.0,-9999.0,'1114422,1114422,1111122' 
DISL,ioos:station:DISL:KATA:1,2013-05-03T02:00:00Z,30.2583,-88.2131,0.0,0.0,0.0,-9999.0,'1114422,1114422,1111122' 
DISL,ioos:station:DISL:KATA:1,2013-05-03T02:30:00Z,30.2583,-88.2131,0.0,0.0,0.0,-9999.0,'1114422,1114422,1111122' 
DISL,ioos:station:DISL:KATA:1,2013-05-03T03:00:00Z,30.2583,-88.2131,0.0,0.0,0.0,-9999.0,'1114422,1114422,1111122' 
DISL,ioos:station:DISL:KATA:1,2013-05-03T03:30:00Z,30.2583,-88.2131,0.0,0.0,0.0,-9999.0,'1114422,1114422,1111122' 
DISL,ioos:station:DISL:KATA:1,2013-05-03T04:00:00Z,30.2583,-88.2131,0.0,0.0,0.0,-9999.0,'1114422,1114422,1111122' 
DISL,ioos:station:DISL:KATA:1,2013-05-03T04:30:00Z,30.2583,-88.2131,0.0,0.0,0.0,-9999.0,'1114422,1114422,1111122' 
DISL,ioos:station:DISL:KATA:1,2013-05-03T05:00:00Z,30.2583,-88.2131,0.0,0.0,111.3,-9999.0,'1114422,1111122,1111122' 
DISL,ioos:station:DISL:KATA:1,2013-05-03T05:30:00Z,30.2583,-88.2131,0.0,0.0,106.0,-9999.0,'1114422,1111122,1111122' 
DISL,ioos:station:DISL:KATA:1,2013-05-03T06:00:00Z,30.2583,-88.2131,0.0,0.0,130.3,-9999.0,'1114422,1111122,1111122' 
DISL,ioos:station:DISL:KATA:1,2013-05-03T06:30:00Z,30.2583,-88.2131,0.0,0.0,159.9,-9999.0,'1114422,1111122,1111122' 
DISL,ioos:station:DISL:KATA:1,2013-05-03T07:00:00Z,30.2583,-88.2131,0.0,0.0,12.05,-9999.0,'1114422,1111122,1111122' 
DISL,ioos:station:DISL:KATA:1,2013-05-03T07:30:00Z,30.2583,-88.2131,0.0,0.0,0.0,-9999.0,'1114422,1114422,1111122' 
DISL,ioos:station:DISL:KATA:1,2013-05-03T08:00:00Z,30.2583,-88.2131,0.0,0.0,0.0,-9999.0,'1114422,1114422,1111122' 
DISL,ioos:station:DISL:KATA:1,2013-05-03T08:30:00Z,30.2583,-88.2131,0.0,0.0,0.0,-9999.0,'1114422,1114422,1111122' 
DISL,ioos:station:DISL:KATA:1,2013-05-03T09:00:00Z,30.2583,-88.2131,0.0,0.0,0.0,-9999.0,'1114422,1114422,1111122' 
DISL,ioos:station:DISL:KATA:1,2013-05-03T09:30:00Z,30.2583,-88.2131,0.0,0.0,0.0,-9999.0,'1114422,1114422,1111122' 
DISL,ioos:station:DISL:KATA:1,2013-05-03T10:00:00Z,30.2583,-88.2131,0.0,0.0,0.0,-9999.0,'1114422,1114422,1111122' 
DISL,ioos:station:DISL:KATA:1,2013-05-03T10:30:00Z,30.2583,-88.2131,0.0,0.0,0.0,-9999.0,'1114422,1114422,1111122' 
DISL,ioos:station:DISL:KATA:1,2013-05-03T11:00:00Z,30.2583,-88.2131,0.0,0.0,0.0,-9999.0,'1114422,1114422,1111122' 
DISL,ioos:station:DISL:KATA:1,2013-05-03T11:30:00Z,30.2583,-88.2131,0.0,0.0,0.0,-9999.0,'1114422,1114422,1111122' 
DISL,ioos:station:DISL:KATA:1,2013-05-03T12:00:00Z,30.2583,-88.2131,0.0,0.0,0.0,-9999.0,'1114422,1114422,1111122' 
DISL,ioos:station:DISL:KATA:1,2013-05-03T12:30:00Z,30.2583,-88.2131,0.0,0.0,0.0,-9999.0,'1114422,1114422,1111122' 
DISL,ioos:station:DISL:KATA:1,2013-05-03T13:00:00Z,30.2583,-88.2131,0.0,0.0,0.0,-9999.0,'1114422,1114422,1111122' 
DISL,ioos:station:DISL:KATA:1,2013-05-03T13:30:00Z,30.2583,-88.2131,0.0,0.0,0.0,-9999.0,'1114422,1114422,1111122' 
DISL,ioos:station:DISL:KATA:1,2013-05-03T14:00:00Z,30.2583,-88.2131,0.0,0.0,0.0,-9999.0,'1114422,1114422,1111122' 
DISL,ioos:station:DISL:KATA:1,2013-05-03T14:30:00Z,30.2583,-88.2131,0.0,0.0,0.0,-9999.0,'1114422,1114422,1111122' 
DISL,ioos:station:DISL:KATA:1,2013-05-03T15:00:00Z,30.2583,-88.2131,0.0,0.0,0.0,-9999.0,'1114422,1114422,1111122' 
DISL,ioos:station:DISL:KATA:1,2013-05-03T15:30:00Z,30.2583,-88.2131,0.0,0.0,0.0,-9999.0,'1114422,1114422,1111122' 
DISL,ioos:station:DISL:KATA:1,2013-05-03T16:00:00Z,30.2583,-88.2131,0.0,0.0,0.0,-9999.0,'1114422,1114422,1111122' 
DISL,ioos:station:DISL:KATA:1,2013-05-03T16:30:00Z,30.2583,-88.2131,0.0,0.0,0.0,-9999.0,'1114422,1114422,1111122' 
DISL,ioos:station:DISL:KATA:1,2013-05-03T17:00:00Z,30.2583,-88.2131,0.0,0.0,0.0,-9999.0,'1114422,1114422,1111122' 
DISL,ioos:station:DISL:KATA:1,2013-05-03T17:30:00Z,30.2583,-88.2131,0.0,0.0,0.0,-9999.0,'1114422,1114422,1111122' 
DISL,ioos:station:DISL:KATA:1,2013-05-03T18:00:00Z,30.2583,-88.2131,0.0,0.0,0.0,-9999.0,'1114422,1114422,1111122' 
DISL,ioos:station:DISL:KATA:1,2013-05-03T18:30:00Z,30.2583,-88.2131,0.0,0.0,0.0,-9999.0,'1114422,1114422,1111122' 
DISL,ioos:station:DISL:KATA:1,2013-05-03T19:00:00Z,30.2583,-88.2131,0.0,0.0,0.0,-9999.0,'1114422,1114422,1111122' 
DISL,ioos:station:DISL:KATA:1,2013-05-03T19:30:00Z,30.2583,-88.2131,0.0,0.0,0.0,-9999.0,'1114422,1114422,1111122' 
DISL,ioos:station:DISL:KATA:1,2013-05-03T20:00:00Z,30.2583,-88.2131,0.0,0.0,0.0,-9999.0,'1114422,1114422,1111122' 
DISL,ioos:station:DISL:KATA:1,2013-05-03T20:30:00Z,30.2583,-88.2131,0.0,0.0,0.0,-9999.0,'1114422,1114422,1111122' 
DISL,ioos:station:DISL:KATA:1,2013-05-03T21:00:00Z,30.2583,-88.2131,0.0,0.0,0.0,-9999.0,'1114422,1114422,1111122' 
DISL,ioos:station:DISL:KATA:1,2013-05-03T21:30:00Z,30.2583,-88.2131,0.0,0.0,0.0,-9999.0,'1114422,1114422,1111122' 
DISL,ioos:station:DISL:KATA:1,2013-05-03T22:00:00Z,30.2583,-88.2131,0.0,0.0,0.0,-9999.0,'1114422,1114422,1111122' 
DISL,ioos:station:DISL:KATA:1,2013-05-03T22:30:00Z,30.2583,-88.2131,0.0,0.0,0.0,-9999.0,'1114422,1114422,1111122' 
DISL,ioos:station:DISL:KATA:1,2013-05-03T23:00:00Z,30.2583,-88.2131,0.0,0.0,0.0,-9999.0,'1114422,1114422,1111122' 
DISL,ioos:station:DISL:KATA:1,2013-05-03T23:30:00Z,30.2583,-88.2131,0.0,0.0,0.0,-9999.0,'1114422,1114422,1111122' 
DISL,ioos:station:DISL:KATA:1,2013-05-04T00:00:00Z,30.2583,-88.2131,0.0,0.0,152.4,-9999.0,'1114422,1111122,1111122' 
DISL,ioos:station:DISL:KATA:1,2013-05-04T00:30:00Z,30.2583,-88.2131,0.0,0.0,143.0,-9999.0,'1114422,1111122,1111122' 
DISL,ioos:station:DISL:KATA:1,2013-05-04T01:00:00Z,30.2583,-88.2131,0.0,0.0,126.1,-9999.0,'1114422,1111122,1111122' 
DISL,ioos:station:DISL:KATA:1,2013-05-04T01:30:00Z,30.2583,-88.2131,0.0,0.0,88.2,-9999.0,'1114422,1111122,1111122' 
DISL,ioos:station:DISL:KATA:1,2013-05-04T02:00:00Z,30.2583,-88.2131,0.0,0.0,120.8,-9999.0,'1114422,1111122,1111122' 
DISL,ioos:station:DISL:KATA:1,2013-05-04T02:30:00Z,30.2583,-88.2131,0.0,0.0,37.63,-9999.0,'1114422,1111122,1111122' 
DISL,ioos:station:DISL:KATA:1,2013-05-04T03:00:00Z,30.2583,-88.2131,0.0,0.0,120.5,-9999.0,'1114422,1111122,1111122' 
DISL,ioos:station:DISL:KATA:1,2013-05-04T03:30:00Z,30.2583,-88.2131,0.0,0.0,117.8,-9999.0,'1114422,1111122,1111122' 
DISL,ioos:station:DISL:KATA:1,2013-05-04T04:00:00Z,30.2583,-88.2131,0.0,0.0,126.3,-9999.0,'1114422,1111122,1111122' 
DISL,ioos:station:DISL:KATA:1,2013-05-04T04:30:00Z,30.2583,-88.2131,0.0,0.0,89.0,-9999.0,'1114422,1111122,1111122' 
DISL,ioos:station:DISL:KATA:1,2013-05-04T05:00:00Z,30.2583,-88.2131,0.0,0.0,29.43,-9999.0,'1114422,1111122,1111122' 
DISL,ioos:station:DISL:KATA:1,2013-05-04T05:30:00Z,30.2583,-88.2131,0.0,0.0,0.0,-9999.0,'1114422,1114422,1111122' 
DISL,ioos:station:DISL:KATA:1,2013-05-04T06:00:00Z,30.2583,-88.2131,0.0,0.0,0.0,-9999.0,'1114422,1114422,1111122' 
DISL,ioos:station:DISL:KATA:1,2013-05-04T06:30:00Z,30.2583,-88.2131,0.0,0.0,0.0,-9999.0,'1114422,1114422,1111122' 
DISL,ioos:station:DISL:KATA:1,2013-05-04T07:00:00Z,30.2583,-88.2131,0.0,0.0,0.0,-9999.0,'1114422,1114422,1111122' 
DISL,ioos:station:DISL:KATA:1,2013-05-04T07:30:00Z,30.2583,-88.2131,0.0,0.0,0.0,-9999.0,'1114422,1114422,1111122' 
DISL,ioos:station:DISL:KATA:1,2013-05-04T08:00:00Z,30.2583,-88.2131,0.0,0.0,0.0,-9999.0,'1114422,1114422,1111122' 
DISL,ioos:station:DISL:KATA:1,2013-05-04T08:30:00Z,30.2583,-88.2131,0.0,0.0,0.0,-9999.0,'1114422,1114422,1111122' 
DISL,ioos:station:DISL:KATA:1,2013-05-04T09:00:00Z,30.2583,-88.2131,0.0,0.0,0.0,-9999.0,'1114422,1114422,1111122' 
DISL,ioos:station:DISL:KATA:1,2013-05-04T09:30:00Z,30.2583,-88.2131,0.0,0.0,0.0,-9999.0,'1114422,1114422,1111122' 
DISL,ioos:station:DISL:KATA:1,2013-05-04T10:00:00Z,30.2583,-88.2131,0.0,0.0,0.0,-9999.0,'1114422,1114422,1111122' 
DISL,ioos:station:DISL:KATA:1,2013-05-04T10:30:00Z,30.2583,-88.2131,0.0,0.0,0.0,-9999.0,'1114422,1114422,1111122' 
DISL,ioos:station:DISL:KATA:1,2013-05-04T11:00:00Z,30.2583,-88.2131,0.0,0.0,0.0,-9999.0,'1114422,1114422,1111122' 
DISL,ioos:station:DISL:KATA:1,2013-05-04T11:30:00Z,30.2583,-88.2131,0.0,0.0,0.0,-9999.0,'1114422,1114422,1111122' 
DISL,ioos:station:DISL:KATA:1,2013-05-04T12:00:00Z,30.2583,-88.2131,0.0,0.0,0.0,-9999.0,'1114422,1114422,1111122' 
DISL,ioos:station:DISL:KATA:1,2013-05-04T12:30:00Z,30.2583,-88.2131,0.0,0.0,0.0,-9999.0,'1114422,1114422,1111122' 
DISL,ioos:station:DISL:KATA:1,2013-05-04T13:00:00Z,30.2583,-88.2131,0.0,0.0,0.0,-9999.0,'1114422,1114422,1111122' 
DISL,ioos:station:DISL:KATA:1,2013-05-04T13:30:00Z,30.2583,-88.2131,0.0,0.0,0.0,-9999.0,'1114422,1114422,1111122' 
DISL,ioos:station:DISL:KATA:1,2013-05-04T14:00:00Z,30.2583,-88.2131,0.0,0.0,0.0,-9999.0,'1114422,1114422,1111122' 
DISL,ioos:station:DISL:KATA:1,2013-05-04T14:30:00Z,30.2583,-88.2131,0.0,0.0,0.0,-9999.0,'1114422,1114422,1111122' 
DISL,ioos:station:DISL:KATA:1,2013-05-04T15:00:00Z,30.2583,-88.2131,0.0,0.0,0.0,-9999.0,'1114422,1114422,1111122' 
DISL,ioos:station:DISL:KATA:1,2013-05-04T15:30:00Z,30.2583,-88.2131,0.0,0.0,0.0,-9999.0,'1114422,1114422,1111122' 
DISL,ioos:station:DISL:KATA:1,2013-05-04T16:00:00Z,30.2583,-88.2131,0.0,0.0,0.0,-9999.0,'1114422,1114422,1111122' 
DISL,ioos:station:DISL:KATA:1,2013-05-04T16:30:00Z,30.2583,-88.2131,0.0,0.0,0.0,-9999.0,'1114422,1114422,1111122' 
DISL,ioos:station:DISL:KATA:1,2013-05-04T17:00:00Z,30.2583,-88.2131,0.0,0.0,0.0,-9999.0,'1114422,1114422,1111122' 
DISL,ioos:station:DISL:KATA:1,2013-05-04T17:30:00Z,30.2583,-88.2131,0.0,0.0,0.0,-9999.0,'1114422,1114422,1111122' 
DISL,ioos:station:DISL:KATA:1,2013-05-04T18:00:00Z,30.2583,-88.2131,0.0,0.0,0.0,-9999.0,'1114422,1114422,1111122' 
DISL,ioos:station:DISL:KATA:1,2013-05-04T18:30:00Z,30.2583,-88.2131,0.0,0.0,0.0,-9999.0,'1114422,1114422,1111122' 
DISL,ioos:station:DISL:KATA:1,2013-05-04T19:00:00Z,30.2583,-88.2131,0.0,0.0,0.0,-9999.0,'1114422,1114422,1111122' 
DISL,ioos:station:DISL:KATA:1,2013-05-04T19:30:00Z,30.2583,-88.2131,0.0,0.0,0.0,-9999.0,'1114422,1114422,1111122' 
DISL,ioos:station:DISL:KATA:1,2013-05-04T20:00:00Z,30.2583,-88.2131,0.0,0.0,0.0,-9999.0,'1114422,1114422,1111122' 
DISL,ioos:station:DISL:KATA:1,2013-05-04T20:30:00Z,30.2583,-88.2131,0.0,0.0,0.0,-9999.0,'1114422,1114422,1111122' 
DISL,ioos:station:DISL:KATA:1,2013-05-04T21:00:00Z,30.2583,-88.2131,0.0,0.0,0.0,-9999.0,'1114422,1114422,1111122' 
DISL,ioos:station:DISL:KATA:1,2013-05-04T21:30:00Z,30.2583,-88.2131,0.0,0.0,0.0,-9999.0,'1114422,1114422,1111122' 
DISL,ioos:station:DISL:KATA:1,2013-05-04T22:00:00Z,30.2583,-88.2131,0.0,0.0,0.0,-9999.0,'1114422,1114422,1111122' 
DISL,ioos:station:DISL:KATA:1,2013-05-04T22:30:00Z,30.2583,-88.2131,0.0,0.0,0.0,-9999.0,'1114422,1114422,1111122' 
DISL,ioos:station:DISL:KATA:1,2013-05-04T23:00:00Z,30.2583,-88.2131,0.0,0.0,0.0,-9999.0,'1114422,1114422,1111122' 
DISL,ioos:station:DISL:KATA:1,2013-05-04T23:30:00Z,30.2583,-88.2131,0.0,0.0,0.0,-9999.0,'1114422,1114422,1111122' 
DISL,ioos:station:DISL:KATA:1,2013-05-05T00:00:00Z,30.2583,-88.2131,0.0,0.0,0.0,-9999.0,'1114422,1114422,1111122' 
DISL,ioos:station:DISL:KATA:1,2013-05-05T00:30:00Z,30.2583,-88.2131,0.0,0.0,0.0,-9999.0,'1114422,1114422,1111122' 
DISL,ioos:station:DISL:KATA:1,2013-05-05T01:00:00Z,30.2583,-88.2131,0.0,0.0,0.0,-9999.0,'1114422,1114422,1111122' 
DISL,ioos:station:DISL:KATA:1,2013-05-05T01:30:00Z,30.2583,-88.2131,0.0,0.0,0.0,-9999.0,'1114422,1114422,1111122' 
DISL,ioos:station:DISL:KATA:1,2013-05-05T02:00:00Z,30.2583,-88.2131,0.0,0.0,0.0,-9999.0,'1114422,1114422,1111122' 
DISL,ioos:station:DISL:KATA:1,2013-05-05T02:30:00Z,30.2583,-88.2131,0.0,0.0,0.0,-9999.0,'1114422,1114422,1111122' 
DISL,ioos:station:DISL:KATA:1,2013-05-05T03:00:00Z,30.2583,-88.2131,0.0,0.0,0.0,-9999.0,'1114422,1114422,1111122' 
DISL,ioos:station:DISL:KATA:1,2013-05-05T03:30:00Z,30.2583,-88.2131,0.0,0.0,0.0,-9999.0,'1114422,1114422,1111122' 
DISL,ioos:station:DISL:KATA:1,2013-05-05T04:00:00Z,30.2583,-88.2131,0.0,0.0,0.0,-9999.0,'1114422,1114422,1111122' 
DISL,ioos:station:DISL:KATA:1,2013-05-05T04:30:00Z,30.2583,-88.2131,0.0,0.0,0.0,-9999.0,'1114422,1114422,1111122' 
DISL,ioos:station:DISL:KATA:1,2013-05-05T05:00:00Z,30.2583,-88.2131,0.0,0.0,0.0,-9999.0,'1114422,1114422,1111122' 
DISL,ioos:station:DISL:KATA:1,2013-05-05T05:30:00Z,30.2583,-88.2131,0.0,0.0,0.0,-9999.0,'1114422,1114422,1111122' 
DISL,ioos:station:DISL:KATA:1,2013-05-05T06:00:00Z,30.2583,-88.2131,0.0,0.0,0.0,-9999.0,'1114422,1114422,1111122' 